Location: Kitchener-Waterloo
(43.4500°N, 80.5000°W)
Time: 00:14:38
(UTC-05:00)

Daily predictions for brighter satellites

Satellite Brightness Start Highest point End
(mag) Time Altitude Azimuth Time Altitude Azimuth Time Altitude Azimuth
USA 267 4.2 04:01:30 10° NE 04:05:25 40° NE 04:05:25 40° NE
Lacrosse 5 rocket 4.2 04:21:14 17° ESE 04:21:14 17° ESE 04:22:18 10° ESE
Cosmos 1697 Rocket 3.5 04:35:59 47° ESE 04:35:59 47° ESE 04:40:14 10° SE
Cosmos 2082 Rocket 3.0 04:36:40 47° ENE 04:36:40 47° ENE 04:41:00 10° NNE
SJ 16-02 3.7 04:40:49 19° SE 04:40:49 19° SE 04:42:06 10° SE
USA 234 3.3 04:36:49 10° ESE 04:43:20 72° NE 04:43:38 70° NNE
Cosmos 1833 Rocket 3.3 04:47:35 49° NE 04:47:35 49° NE 04:51:43 10° NNE
SeaSat 1 3.9 04:42:11 10° NNE 04:44:46 31° NE 04:44:46 31° NE
Cosmos 2279 Rocket 4.1 04:54:44 35° N 04:57:33 73° E 05:03:44 10° SSE
CZ-4B R/B 4.4 04:53:17 10° NNE 04:56:12 32° NNE 04:56:12 32° NNE
Okean-O 4.4 04:55:05 10° NE 04:59:01 30° E 05:02:56 10° SSE
COSMO-SKYMED 1 3.6 05:04:17 10° SE 05:08:24 44° ENE 05:09:16 39° NE
Cosmos 1980 Rocket 2.4 05:12:27 46° N 05:14:08 69° ENE 05:19:47 10° SSE
CZ-2C R/B 4.3 05:12:39 10° NE 05:16:52 28° E 05:20:56 10° SSE
Cosmos 44 4.3 05:19:57 31° NNE 05:19:57 31° NNE 05:22:19 10° NNE
Cosmos 1536 3.8 05:17:35 10° SSE 05:21:28 46° E 05:25:22 10° NNE
Meteor 1-13 Rocket 4.3 05:18:39 27° N 05:22:06 88° ENE 05:28:04 10° S
Meteor 1-11 Rocket 3.9 05:21:26 10° S 05:27:23 78° E 05:33:16 10° NNE
Meteor 2-4 Rocket 3.6 05:26:34 21° N 05:30:19 81° E 05:35:51 10° SSE
SKYMED 3 4.4 05:34:05 10° SSE 05:38:26 87° W 05:39:42 46° NNW
Meteor 2-20 4.3 05:32:51 10° S 05:38:58 87° W 05:45:06 10° N
Meteor 1-19 Rocket 4.4 05:47:12 29° NW 05:49:54 50° W 05:55:33 10° SSW
SL-16 R/B 3.1 05:45:08 13° NNW 05:50:07 48° ENE 05:55:35 10° SE
Cosmos 2360 4.1 05:47:36 32° NW 05:50:18 68° WSW 05:55:57 10° SSE
USA 267 3.8 05:44:45 10° NE 05:50:40 38° NNW 05:52:47 31° WNW
Nadezhda 4 Rocket 3.9 05:44:39 10° S 05:50:48 89° W 05:56:58 10° N
RESURS DK-1 2.3 05:51:38 55° WNW 05:52:20 67° WSW 05:56:26 10° SSE
ATLAS 5 CENTAUR R/B 4.4 05:52:18 10° N 05:54:12 12° NNE 05:56:10 10° NE
SKYMED 2 3.6 05:52:11 10° S 05:56:26 55° W 05:57:54 36° NW
Lacrosse 5 rocket 2.6 05:56:57 28° SW 05:56:57 28° SW 06:00:43 10° S
Cosmos 2322 Rocket 2.9 05:52:40 12° NNW 05:57:53 53° ENE 06:03:25 10° SE
CZ-4 R/B 4.4 05:57:52 10° NE 06:00:52 19° E 06:03:53 10° SE
EO 1 Del DPAF 3.4 05:59:01 10° S 06:02:44 49° W 06:03:26 43° WNW
Timation 2 Rocket 4.2 05:58:18 10° SSW 06:05:11 88° WNW 06:12:07 10° NNE
PAYLOAD A 4.0 06:00:10 10° N 06:05:36 72° WNW 06:10:57 10° SSW
NOAA 6 4.1 06:02:14 10° N 06:07:13 53° WNW 06:12:11 10° SSW
SJ-12 4.3 06:04:42 10° NNE 06:08:45 63° E 06:12:46 10° S
Meteor 1-5 Rocket 4.0 06:04:10 10° SSW 06:09:38 72° W 06:15:00 10° N
BREEZE-M DEB (TANK) 2.7 06:12:56 24° SW 06:14:05 53° SE 06:17:38 10° ENE
Okean 1-7 Rocket 4.3 06:10:04 10° N 06:14:32 57° E 06:19:00 10° SSE
SJ 16-02 3.4 06:17:53 12° SW 06:17:53 12° SW 06:18:32 10° SW
Okean 2 3.4 06:13:02 10° N 06:17:09 81° E 06:21:14 10° S
Cosmos 1437 Rocket 3.0 06:14:06 10° SSW 06:17:54 43° WNW 06:21:39 10° N
Cosmos 1697 Rocket 3.8 06:17:47 21° W 06:18:13 21° W 06:22:19 10° SSW
Cosmos 2082 Rocket 3.2 06:18:37 23° WNW 06:19:52 25° NW 06:24:32 10° N
Cosmos 44 Rocket 4.2 06:19:22 25° WNW 06:20:16 26° NW 06:24:17 10° NNE
Cosmos 2151 Rocket 4.2 06:16:39 10° SW 06:20:33 31° WNW 06:24:29 10° NNW
IDEFIX/ARIANE 42P 2.6 06:16:03 10° N 06:21:07 54° WNW 06:26:11 10° SSW
SeaSat 1 3.7 06:20:38 10° N 06:24:12 20° NW 06:24:34 20° NW
CZ-4C R/B 2.1 06:19:40 10° SW 06:24:52 82° NW 06:30:54 10° NE
Ariane Rocket 4.2 06:20:07 10° NNE 06:24:59 45° E 06:29:49 10° S
USA 234 4.0 06:20:43 10° SSE 06:26:37 36° SW 06:30:59 17° WNW
Cosmos 1092 Rocket 3.9 06:22:49 10° SSW 06:28:54 66° W 06:35:02 10° N
Cosmos 1833 Rocket 3.9 06:29:21 19° WNW 06:30:37 20° NW 06:34:45 10° N
Meteor 1-23 Rocket 4.5 06:27:14 10° NNW 06:32:32 45° W 06:37:46 10° SSW
Cosmos 1300 Rocket 4.0 06:28:52 10° SW 06:32:50 35° WNW 06:36:50 10° N
Cosmos 1184 Rocket 3.0 06:29:49 10° N 06:33:09 73° E 06:36:28 10° SSE
Okean-O 3.5 06:31:41 10° N 06:35:24 27° WNW 06:39:07 10° SW
Cosmos 1500 3.1 06:31:54 10° SSW 06:35:44 69° W 06:39:36 10° N
Cosmos 1975 3.3 06:32:39 10° S 06:36:35 64° E 06:40:33 10° NNE
MSX 3.8 06:33:08 10° N 06:38:50 64° WNW 06:44:28 10° SSW
Cosmos 773 Rocket 4.1 06:37:43 10° SW 06:42:43 53° WNW 06:47:47 10° NNE
Cosmos 2195 Rocket 4.5 06:36:38 10° SSW 06:42:56 73° W 06:49:14 10° N
Cosmos 1680 Rocket 3.9 06:39:33 10° S 06:44:42 68° ESE 06:49:54 10° NNE
COSMO-SKYMED 1 4.1 06:41:51 10° SW 06:44:46 18° W 06:46:29 14° WNW
Cosmos 1025 Rocket 3.2 06:41:21 10° NNW 06:45:28 48° W 06:49:35 10° SSW
Cosmos 2026 Rocket 4.0 06:40:09 10° S 06:46:23 79° W 06:52:46 10° N
SMAP 3.2 06:42:34 10° NNE 06:47:15 78° ESE 06:51:54 10° S
deb Kosmos-1763 4.1 06:44:50 10° SSW 06:48:31 56° WNW 06:52:12 10° NNE
Cosmos 1066 Rocket 4.1 06:44:23 10° NNW 06:49:46 84° W 06:55:10 10° S
Cosmos 1553 Rocket 4.2 06:44:00 10° N 06:50:18 76° E 06:56:28 10° SSE
Meteor 1-4 Rocket 3.1 06:48:23 10° SW 06:51:56 38° WNW 06:55:32 10° N
AQUARIUS 4.2 06:49:28 10° NNE 06:53:59 89° WNW 06:58:29 10° SSW
Thor Agena Rocket 3.7 06:49:41 10° S 06:54:33 50° W 06:59:30 10° NNW
CZ-2C R/B 3.0 06:50:45 10° N 06:55:07 33° WNW 06:59:21 10° SW
Cosmos 2360 Rocket 2.6 06:50:41 10° NNW 06:56:21 66° ENE 07:01:59 10° SE
Cosmos 1980 Rocket 3.7 06:54:16 11° WNW 06:57:30 18° W 07:01:07 10° SW
ALOS 4.4 06:53:49 10° NNE 06:57:57 30° E 07:02:02 10° SSE
Cosmos 1536 4.5 06:55:58 10° WSW 06:58:11 14° WNW 07:00:25 10° NW
Okean 1 Rocket 3.9 06:59:03 10° SW 07:02:49 28° WNW 07:06:38 10° NNW
Cosmos 2219 Rocket 4.0 07:02:51 10° N 07:07:33 26° NE 07:12:13 10° ESE
Cosmos 1666 2.8 07:04:29 10° S 07:08:20 83° E 07:12:10 10° N
BREEZE-M DEB (TANK) 4.0 07:02:15 10° SW 07:14:42 62° SSE 07:18:15 10° ENE
Cosmos 923 Rocket 4.2 07:10:03 10° SW 07:15:09 51° WNW 07:20:16 10° N
